| time (UTC) | temp F | wind direction | speed knots | gust knots | rain 1hr in | rain 24hr in | rain mn in | humidity % | barometer mb |
| 20260906202803 | 94 | 185 | 9.6 | 23.5 | 0.00 | 0.01 | 0.01 | 41 | 1005.8 |
| 20260906201803 | 93 | 181 | 7.0 | 19.1 | 0.00 | 0.01 | 0.01 | 42 | 1005.9 |
| 20260906200803 | 93 | 173 | 8.7 | 23.5 | 0.00 | 0.01 | 0.01 | 43 | 1005.9 |
| 20260906195803 | 92 | 190 | 13.0 | 20.9 | 0.00 | 0.01 | 0.01 | 45 | 1005.9 |
| 20260906194803 | 92 | 174 | 9.6 | 16.5 | 0.00 | 0.01 | 0.01 | 45 | 1006.3 |
| 20260906193803 | 91 | 172 | 7.8 | 17.4 | 0.00 | 0.01 | 0.01 | 46 | 1006.5 |
| 20260906192803 | 91 | 174 | 7.8 | 17.4 | 0.00 | 0.01 | 0.01 | 49 | 1006.6 |
| 20260906191824 | 90 | 154 | 9.6 | 16.5 | 0.00 | 0.01 | 0.01 | 48 | 1006.7 |
| 20260906190803 | 90 | 156 | 10.4 | 17.4 | 0.00 | 0.01 | 0.01 | 49 | 1006.8 |
| 20260906185803 | 88 | 154 | 9.6 | 14.8 | 0.00 | 0.01 | 0.01 | 53 | 1006.8 |
| 20260906184803 | 87 | 161 | 7.8 | 19.1 | 0.00 | 0.01 | 0.01 | 58 | 1007.3 |
| 20260906183803 | 86 | 144 | 13.9 | 21.7 | 0.00 | 0.01 | 0.01 | 60 | 1007.6 |
| 20260906182803 | 85 | 141 | 15.6 | 26.1 | 0.00 | 0.01 | 0.01 | 61 | 1007.8 |
| 20260906181803 | 84 | 139 | 13.9 | 23.5 | 0.00 | 0.01 | 0.01 | 63 | 1008.0 |
| 20260906180824 | 83 | 147 | 10.4 | 23.5 | 0.00 | 0.01 | 0.01 | 64 | 1008.1 |
| 20260906175803 | 82 | 146 | 12.2 | 21.7 | 0.00 | 0.01 | 0.01 | 66 | 1008.3 |
| 20260906174802 | 82 | 143 | 12.2 | 23.5 | 0.00 | 0.01 | 0.01 | 66 | 1008.4 |
| 20260906173803 | 82 | 156 | 9.6 | 21.7 | 0.00 | 0.01 | 0.01 | 64 | 1008.7 |
| 20260906172802 | 81 | 139 | 11.3 | 22.6 | 0.00 | 0.01 | 0.01 | 67 | 1008.9 |
| 20260906171803 | 81 | 143 | 13.0 | 20.0 | 0.00 | 0.01 | 0.01 | 67 | 1008.9 |
| 20260906170802 | 81 | 136 | 13.9 | 21.7 | 0.00 | 0.01 | 0.01 | 67 | 1009.1 |
| 20260906165803 | 81 | 133 | 7.0 | 14.8 | 0.00 | 0.01 | 0.01 | 70 | 1009.2 |
| 20260906164823 | 79 | 141 | 5.2 | 10.4 | 0.00 | 0.01 | 0.01 | 75 | 1009.3 |
| 20260906163803 | 77 | 153 | 5.2 | 13.0 | 0.00 | 0.01 | 0.01 | 75 | 1009.4 |
| 20260906162845 | 78 | 156 | 6.1 | 16.5 | 0.00 | 0.01 | 0.01 | 73 | 1009.1 |
| 20260906161803 | 79 | 151 | 10.4 | 15.6 | 0.00 | 0.01 | 0.01 | 69 | 1009.1 |
| 20260906160803 | 79 | 148 | 8.7 | 17.4 | 0.00 | 0.01 | 0.01 | 71 | 1008.8 |
| 20260906155802 | 78 | 154 | 9.6 | 17.4 | 0.00 | 0.01 | 0.01 | 72 | 1008.7 |
| 20260906154803 | 78 | 145 | 8.7 | 17.4 | 0.00 | 0.01 | 0.01 | 71 | 1008.9 |
| 20260906153803 | 79 | 153 | 9.6 | 14.8 | 0.00 | 0.01 | 0.01 | 70 | 1008.9 |
| 20260906152803 | 78 | 162 | 6.1 | 11.3 | 0.00 | 0.01 | 0.01 | 74 | 1009.2 |
| 20260906151802 | 76 | 173 | 4.3 | 11.3 | 0.00 | 0.01 | 0.01 | 80 | 1009.2 |
| 20260906150803 | 73 | 152 | 6.1 | 14.8 | 0.00 | 0.01 | 0.01 | 83 | 1009.2 |
| 20260906145804 | 73 | 129 | 9.6 | 15.6 | 0.00 | 0.01 | 0.01 | 82 | 1008.8 |
| 20260906144803 | 73 | 107 | 12.2 | 16.5 | 0.00 | 0.01 | 0.01 | 82 | 1009.0 |
| 20260906143802 | 72 | 120 | 6.1 | 13.0 | 0.00 | 0.01 | 0.01 | 83 | 1009.2 |
| 20260906142803 | 73 | 114 | 10.4 | 13.9 | 0.00 | 0.01 | 0.01 | 82 | 1009.5 |
| 20260906141823 | 73 | 117 | 7.0 | 13.9 | 0.00 | 0.01 | 0.01 | 81 | 1009.5 |
| 20260906140803 | 73 | 129 | 7.0 | 12.2 | 0.00 | 0.01 | 0.01 | 82 | 1009.3 |
| 20260906134803 | 72 | 100 | 9.6 | 13.0 | 0.00 | 0.01 | 0.01 | 85 | 1009.2 |
| 20260906133803 | 72 | 83 | 8.7 | 13.0 | 0.00 | 0.01 | 0.01 | 85 | 1009.3 |
| 20260906132802 | 72 | 91 | 10.4 | 14.8 | 0.00 | 0.01 | 0.01 | 85 | 1009.2 |
| 20260906131845 | 72 | 77 | 7.8 | 13.0 | 0.00 | 0.01 | 0.01 | 84 | 1009.1 |
| 20260906130803 | 72 | 71 | 6.1 | 10.4 | 0.00 | 0.01 | 0.01 | 84 | 1009.0 |
| 20260906125823 | 71 | 66 | 5.2 | 10.4 | 0.00 | 0.01 | 0.01 | 84 | 1008.6 |
| 20260906124803 | 71 | 61 | 6.1 | 9.6 | 0.00 | 0.01 | 0.01 | 85 | 1008.6 |
| 20260906123803 | 71 | 68 | 3.5 | 8.7 | 0.00 | 0.01 | 0.01 | 84 | 1008.5 |
| 20260906122824 | 71 | 45 | 5.2 | 8.7 | 0.00 | 0.01 | 0.01 | 85 | 1008.4 |
| 20260906121803 | 71 | 15 | 7.0 | 8.7 | 0.00 | 0.01 | 0.01 | 85 | 1008.3 |
| 20260906120803 | 71 | 12 | 6.1 | 7.8 | 0.00 | 0.01 | 0.01 | 84 | 1008.0 |
| 20260906115802 | 71 | 3 | 2.6 | 3.5 | 0.00 | 0.01 | 0.01 | 85 | 1007.7 |
| 20260906114803 | 71 | 45 | 2.6 | 4.3 | 0.00 | 0.01 | 0.01 | 85 | 1007.8 |
| 20260906113802 | 71 | 116 | 2.6 | 7.0 | 0.00 | 0.01 | 0.01 | 85 | 1007.7 |
| 20260906112803 | 71 | 124 | 4.3 | 7.0 | 0.00 | 0.01 | 0.01 | 85 | 1007.3 |
| 20260906111802 | 72 | 96 | 0.9 | 3.5 | 0.00 | 0.01 | 0.01 | 83 | 1006.8 |
| 20260906110803 | 72 | 283 | 0.9 | 3.5 | 0.00 | 0.01 | 0.01 | 82 | 1006.6 |
| 20260906105802 | 73 | 263 | 1.7 | 5.2 | 0.01 | 0.01 | 0.01 | 81 | 1006.4 |
| 20260906104803 | 71 | 239 | 3.5 | 6.1 | 0.01 | 0.01 | 0.01 | 83 | 1006.3 |
| 20260906103803 | 72 | 232 | 2.6 | 7.8 | 0.01 | 0.01 | 0.01 | 83 | 1006.2 |
| 20260906102803 | 72 | 218 | 7.0 | 12.2 | 0.01 | 0.01 | 0.01 | 81 | 1006.2 |
| 20260906100804 | 74 | 239 | 3.5 | 15.6 | 0.00 | 0.00 | 0.00 | 77 | 1006.2 |
| 20260906095804 | 73 | 211 | 13.0 | 18.2 | 0.00 | 0.00 | 0.00 | 76 | 1006.4 |
| 20260906094804 | 74 | 186 | 3.5 | 6.1 | 0.00 | 0.00 | 0.00 | 77 | 1006.6 |
| 20260906092846 | 75 | 171 | 1.7 | 7.8 | 0.00 | 0.00 | 0.00 | 74 | 1006.9 |
| 20260906091803 | 75 | 183 | 4.3 | 9.6 | 0.00 | 0.00 | 0.00 | 74 | 1006.9 |
| 20260906090825 | 75 | 197 | 7.0 | 10.4 | 0.00 | 0.00 | 0.00 | 75 | 1006.9 |
| 20260906085804 | 74 | 212 | 7.0 | 9.6 | 0.00 | 0.00 | 0.00 | 76 | 1006.8 |
| 20260906084804 | 74 | 229 | 4.3 | 7.8 | 0.00 | 0.00 | 0.00 | 77 | 1006.7 |
| 20260906082804 | 75 | 179 | 3.5 | 6.1 | 0.00 | 0.00 | 0.00 | 74 | 1006.5 |
| 20260906081803 | 75 | 186 | 2.6 | 5.2 | 0.00 | 0.00 | 0.00 | 74 | 1006.6 |
| 20260906080804 | 75 | 171 | 1.7 | 3.5 | 0.00 | 0.00 | 0.00 | 74 | 1006.7 |
| 20260906075804 | 75 | 186 | 1.7 | 5.2 | 0.00 | 0.00 | 0.00 | 73 | 1006.8 |
| 20260906074804 | 75 | 202 | 4.3 | 5.2 | 0.00 | 0.00 | 0.00 | 72 | 1007.0 |
| 20260906073803 | 76 | 162 | 0.9 | 4.3 | 0.00 | 0.00 | 0.00 | 71 | 1006.8 |
| 20260906072804 | 76 | 183 | 1.7 | 4.3 | 0.00 | 0.00 | 0.00 | 70 | 1006.9 |
| 20260906071803 | 76 | 185 | 1.7 | 5.2 | 0.00 | 0.00 | 0.00 | 70 | 1006.9 |
| 20260906070804 | 76 | 187 | 3.5 | 9.6 | 0.00 | 0.00 | 0.00 | 69 | 1006.7 |
| 20260906065803 | 76 | 201 | 7.8 | 11.3 | 0.00 | 0.00 | 0.00 | 70 | 1006.7 |
| 20260906064804 | 75 | 196 | 7.0 | 9.6 | 0.00 | 0.00 | 0.00 | 71 | 1006.8 |
| 20260906063804 | 75 | 181 | 4.3 | 7.0 | 0.00 | 0.00 | 0.00 | 72 | 1006.8 |
| 20260906062804 | 74 | 168 | 2.6 | 4.3 | 0.00 | 0.00 | 0.00 | 72 | 1007.0 |
| 20260906061805 | 74 | 171 | 2.6 | 4.3 | 0.00 | 0.00 | 0.00 | 73 | 1007.1 |
| 20260906060804 | 74 | 167 | 1.7 | 5.2 | 0.00 | 0.00 | 0.00 | 73 | 1006.8 |
| 20260906055804 | 74 | 160 | 2.6 | 5.2 | 0.00 | 0.00 | 0.00 | 74 | 1006.4 |
| 20260906054804 | 73 | 162 | 2.6 | 5.2 | 0.00 | 0.00 | 0.00 | 74 | 1006.6 |
| 20260906053804 | 73 | 163 | 2.6 | 5.2 | 0.00 | 0.00 | 0.00 | 73 | 1006.6 |
| 20260906052804 | 74 | 172 | 1.7 | 4.3 | 0.00 | 0.00 | 0.00 | 72 | 1006.4 |
| 20260906051803 | 74 | 173 | 1.7 | 3.5 | 0.00 | 0.00 | 0.00 | 71 | 1006.4 |
| 20260906050804 | 75 | 168 | 1.7 | 7.0 | 0.00 | 0.00 | 0.00 | 70 | 1006.3 |
| 20260906045804 | 76 | 176 | 2.6 | 8.7 | 0.00 | 0.00 | 0.00 | 69 | 1006.2 |
| 20260906044804 | 76 | 190 | 3.5 | 7.8 | 0.00 | 0.00 | 0.00 | 68 | 1006.1 |
| 20260906043803 | 76 | 224 | 4.3 | 7.0 | 0.00 | 0.00 | 0.00 | 67 | 1006.2 |
| 20260906042804 | 77 | 165 | 0.9 | 4.3 | 0.00 | 0.00 | 0.00 | 65 | 1006.0 |
| 20260906041803 | 78 | 160 | 2.6 | 5.2 | 0.00 | 0.00 | 0.00 | 63 | 1006.1 |
| 20260906040804 | 79 | 164 | 2.6 | 5.2 | 0.00 | 0.00 | 0.00 | 62 | 1006.2 |
| 20260906034804 | 80 | 181 | 2.6 | 7.0 | 0.00 | 0.00 | 0.00 | 62 | 1006.1 |
| 20260906033803 | 80 | 181 | 2.6 | 6.1 | 0.00 | 0.00 | 0.00 | 62 | 1006.1 |
| 20260906032804 | 80 | 177 | 3.5 | 7.8 | 0.00 | 0.00 | 0.00 | 61 | 1006.0 |
| 20260906031803 | 80 | 182 | 4.3 | 8.7 | 0.00 | 0.00 | 0.00 | 62 | 1006.1 |
| 20260906030825 | 80 | 182 | 2.6 | 6.1 | 0.00 | 0.00 | 0.00 | 62 | 1006.0 |
| 20260906025804 | 80 | 165 | 2.6 | 7.8 | 0.00 | 0.00 | 0.00 | 62 | 1006.0 |
| 20260906024803 | 80 | 172 | 2.6 | 7.8 | 0.00 | 0.00 | 0.00 | 63 | 1005.9 |
| 20260906023803 | 80 | 166 | 2.6 | 6.1 | 0.00 | 0.00 | 0.00 | 63 | 1005.8 |
| 20260906022804 | 80 | 149 | 4.3 | 7.8 | 0.00 | 0.00 | 0.00 | 62 | 1005.6 |
| 20260906021803 | 81 | 158 | 4.3 | 7.8 | 0.00 | 0.00 | 0.00 | 61 | 1005.3 |
| 20260906020804 | 81 | 159 | 4.3 | 9.6 | 0.00 | 0.00 | 0.00 | 61 | 1005.3 |
| 20260906015824 | 81 | 153 | 4.3 | 10.4 | 0.00 | 0.00 | 0.00 | 60 | 1005.2 |
| 20260906014804 | 82 | 153 | 5.2 | 10.4 | 0.00 | 0.00 | 0.00 | 60 | 1005.2 |
| 20260906013803 | 82 | 151 | 7.0 | 13.0 | 0.00 | 0.00 | 0.00 | 59 | 1004.9 |
| 20260906012804 | 83 | 155 | 6.1 | 15.6 | 0.00 | 0.00 | 0.00 | 58 | 1005.0 |
| 20260906011804 | 83 | 150 | 6.1 | 12.2 | 0.00 | 0.00 | 0.00 | 57 | 1004.7 |
| 20260906010825 | 83 | 154 | 7.0 | 15.6 | 0.00 | 0.00 | 0.00 | 56 | 1004.6 |
| 20260906005803 | 84 | 152 | 7.0 | 18.2 | 0.00 | 0.00 | 0.00 | 55 | 1004.7 |
| 20260906004804 | 84 | 147 | 10.4 | 20.0 | 0.00 | 0.00 | 0.00 | 54 | 1004.5 |
| 20260906003804 | 85 | 143 | 10.4 | 20.9 | 0.00 | 0.00 | 0.00 | 53 | 1004.6 |
| 20260906002804 | 86 | 144 | 11.3 | 20.9 | 0.00 | 0.00 | 0.00 | 52 | 1004.6 |
| 20260906001803 | 89 | 125 | 9.6 | 19.1 | 0.00 | 0.00 | 0.00 | 50 | 1004.6 |
| 20260906000804 | 90 | 142 | 9.6 | 18.2 | 0.00 | 0.00 | 0.00 | 47 | 1004.5 |
| 20260905235804 | 92 | 134 | 10.4 | 15.6 | 0.00 | 0.00 | 0.00 | 45 | 1004.3 |
| 20260905233803 | 94 | 180 | 6.1 | 9.6 | 0.00 | 0.00 | 0.00 | 40 | 1004.0 |
| 20260905232804 | 95 | 180 | 5.2 | 11.3 | 0.00 | 0.00 | 0.00 | 39 | 1003.9 |
| 20260905231824 | 95 | 172 | 5.2 | 14.8 | 0.00 | 0.00 | 0.00 | 38 | 1004.0 |
| 20260905230804 | 95 | 183 | 9.6 | 13.9 | 0.00 | 0.00 | 0.00 | 37 | 1003.8 |
| 20260905225803 | 95 | 174 | 4.3 | 15.6 | 0.00 | 0.00 | 0.00 | 38 | 1003.8 |
| 20260905224804 | 95 | 179 | 5.2 | 13.9 | 0.00 | 0.00 | 0.00 | 38 | 1003.7 |
| 20260905223824 | 96 | 171 | 4.3 | 12.2 | 0.00 | 0.00 | 0.00 | 38 | 1003.8 |
| 20260905222804 | 96 | 180 | 5.2 | 13.0 | 0.00 | 0.00 | 0.00 | 39 | 1003.7 |
| 20260905221804 | 96 | 182 | 6.1 | 15.6 | 0.00 | 0.00 | 0.00 | 38 | 1003.6 |
| 20260905220803 | 96 | 209 | 11.3 | 18.2 | 0.00 | 0.00 | 0.00 | 37 | 1003.7 |
| 20260905215804 | 96 | 169 | 4.3 | 9.6 | 0.00 | 0.00 | 0.00 | 40 | 1003.7 |
| 20260905214804 | 95 | 190 | 7.0 | 14.8 | 0.00 | 0.00 | 0.00 | 42 | 1003.7 |
| 20260905213804 | 95 | 171 | 4.3 | 14.8 | 0.00 | 0.00 | 0.00 | 41 | 1004.0 |
| 20260905212803 | 95 | 181 | 4.3 | 13.0 | 0.00 | 0.00 | 0.00 | 42 | 1004.1 |
| 20260905211804 | 95 | 187 | 8.7 | 15.6 | 0.00 | 0.00 | 0.00 | 42 | 1004.2 |
| 20260905210845 | 95 | 176 | 5.2 | 11.3 | 0.00 | 0.00 | 0.00 | 42 | 1004.4 |
| 20260905205804 | 94 | 203 | 9.6 | 14.8 | 0.00 | 0.00 | 0.00 | 42 | 1004.5 |
| 20260905204825 | 94 | 166 | 5.2 | 10.4 | 0.00 | 0.00 | 0.00 | 42 | 1004.6 |
| 20260905203824 | 94 | 184 | 6.1 | 17.4 | 0.00 | 0.00 | 0.00 | 44 | 1004.9 |